Location: Dana
(41.8364°N, 106.7042°W)
Time: 14:49:54
(UTC+00:00)

Vanguard 3 - Pass Details

Date: 12 May 2026
Orbit: 507 x 3204 km, 33.3° (Epoch: 8 June)

Event Time Altitude Azimuth Distance (km) Brightness Sun altitude
Rises 22:35:51 0° 249° (WSW) 7,037 12.8 39.3°
Reaches altitude 10° 22:40:33 10° 247° (WSW) 6,103 12.8 38.5°
Maximum altitude 22:59:39 62° 173° (S) 3,145 10.6 34.9°
Drops below altitude 10° 23:13:43 10° 98° (E) 4,661 10.6 32.3°
Sets 23:16:46 0° 95° (E) 5,358 10.8 31.8°
